Regional Weather Roundup
Issued by NWS

Home | Current Version | Previous Version | Text Only | Print | Product List | Glossary Off
Versions: 1 2 3 4 5 6 7 8 9 10 11 12 13 14 15 16 17 18 19 20 21 22 23 24 25 26 27 28 29 30 31 32 33 34 35 36 37 38 39 40 41 42 43 44 45 46 47 48 49 50

000
ASUS43 KLSX 120757
RWRMO

WEATHER SUMMARY FOR MISSOURI
NATIONAL WEATHER SERVICE SPRINGFIELD MO
200 AM CST FRI FEB 12 2016

NOTE: "FAIR" INDICATES FEW OR NO CLOUDS BELOW 12,000 FEET WITH NO
       SIGNIFICANT WEATHER AND/OR OBSTRUCTIONS TO VISIBILITY.
       CURRENT SKY AND/OR WEATHER CONDITIONS ARE NOT AVAILABLE FOR
       CHILLICOTHE AND FARMINGTON.

MOZ001>031-035>038-043-044-053-054-120900-
...NORTHERN AND WESTERN MISSOURI...

CITY           SKY/WX    TMP DP  RH WIND       PRES   REMARKS
KANSAS CTY INT CLOUDY    29  21  72 NE7       30.19R WCI  22
LEE`S SUMMIT   CLOUDY    30  21  69 NE7       30.18R WCI  23
ST JOSEPH      CLOUDY    30  20  66 NE6       30.21F WCI  24
CHILLICOTHE      N/A     27  16  63 NE3       30.23S

$$
MOZ066>068-077>081-088>096-101>105-120900-
...SOUTHWEST MISSOURI...

CITY           SKY/WX    TMP DP  RH WIND       PRES   REMARKS
SPRINGFIELD    MOCLDY    35  22  58 S8        30.12S WCI  29
JOPLIN         CLEAR     30  23  75 S5        30.16F WCI  25

$$
MOZ032>034-039>042-045>050-055>058-069>072-120900-
...CENTRAL MISSOURI...

CITY           SKY/WX    TMP DP  RH WIND       PRES   REMARKS
COLUMBIA       NOT AVBL
JEFFERSON CITY CLOUDY    27  23  85 NE5       30.21R WCI  22
ROLLA          CLOUDY    27  22  81 E5        30.13S WCI  22
SEDALIA        CLOUDY    29  24  82 NE9       30.19S WCI  20

$$
MOZ051-052-059>065-120900-
...EAST CENTRAL MISSOURI...

CITY           SKY/WX    TMP DP  RH WIND       PRES   REMARKS
ST LOUIS INTL  NOT AVBL
SPIRIT OF STL  CLOUDY    25  21  86 E6        30.21S WCI  18

$$
MOZ072>076-082>087-097>100-106>115-120900-
...SOUTH CENTRAL AND SOUTHEAST MISSOURI...

CITY           SKY/WX    TMP DP  RH WIND       PRES   REMARKS
CAPE GIRARDEAU NOT AVBL
POPLAR BLUFF   MOCLDY    31  23  72 SE5       30.16F WCI  26
WEST PLAINS    MOCLDY    32  20  61 S5        30.14F WCI  27

$$


USA.gov is the U.S. government's official web portal to all federal, state and local government web resources and services.